Wind_Speed
7 7 7 7 8 7 7 7 8 8 9 9 9 9 10 10 10 10 10 10 9 9 9 9 9 9 9 10 10 10 10 10 10 10 10 10 11 11 11 11 11 11 11
8 7 8 9 9 9 9 9 9 9 10 10 10 10 11 11 11 11 11 11 11 10 10 10 10 10 10 11 11 11 11 12 12 12 12 12 12 12 12 12 12 12 11
9 9 10 10 11 11 11 11 11 11 12 11 11 11 12 12 12 12 12 12 12 12 12 11 12 12 12 12 12 13 13 13 13 13 13 13 13 14 13 13 13 13 12
10 11 12 12 12 12 13 12 13 13 13 13 13 13 13 14 13 13 13 13 13 13 13 13 13 13 13 13 13 14 14 14 14 14 13 13 13 14 14 14 14 14 13
12 12 13 13 13 13 14 14 14 14 14 14 14 14 14 15 15 15 14 14 14 14 14 14 14 14 14 14 14 14 15 15 15 15 15 14 14 15 15 16 15 15 14
13 13 14 14 14 15 15 15 15 15 15 15 15 15 16 16 16 16 16 15 15 15 15 16 16 16 15 15 16 16 16 16 16 16 16 16 15 16 16 16 17 16 16
14 15 15 15 15 16 15 15 16 16 16 16 16 17 17 17 17 17 17 17 17 17 16 17 17 17 17 17 17 17 17 17 17 18 18 17 17 17 17 17 18 17 17
14 15 17 17 16 16 16 16 17 17 17 17 17 17 17 18 18 18 18 18 18 18 18 18 18 18 18 18 18 18 18 19 19 19 19 19 19 19 19 19 18 17 18
15 15 16 16 17 16 16 17 18 17 17 17 17 18 18 18 18 19 19 19 19 19 19 19 18 19 19 19 19 19 19 20 20 20 20 20 20 20 21 20 20 19 19
16 15 16 15 17 17 17 18 18 18 17 18 18 19 19 19 19 19 19 20 20 20 20 20 20 20 20 20 20 20 20 20 21 21 21 22 21 21 22 21 21 21 21
18 17 17 17 17 17 18 18 19 18 19 19 19 20 20 20 20 20 20 21 21 21 21 21 21 21 21 21 21 21 22 22 22 23 23 23 23 23 23 23 22 22 22
19 18 18 18 18 19 19 19 19 20 21 21 21 21 21 21 21 22 22 22 22 22 22 23 23 23 23 23 23 23 23 24 24 24 24 24 24 24 24 25 24 24 23
19 19 19 19 19 20 20 20 21 21 21 21 21 22 22 22 23 23 23 22 23 23 23 23 23 24 24 24 23 23 24 24 24 25 24 24 24 24 25 25 26 25 25
20 21 21 20 21 21 21 22 22 21 21 21 22 22 22 23 23 23 23 23 24 24 24 24 25 25 25 24 23 23 24 24 24 24 24 24 24 25 25 26 26 26 26
21 21 21 21 22 22 22 22 22 22 22 22 22 23 23 24 24 24 24 25 25 25 25 25 25 25 24 23 24 24 24 25 25 25 25 25 25 25 26 26 27 28 28
22 21 21 22 21 22 22 22 23 23 23 23 23 24 24 25 25 25 25 25 26 26 26 25 25 25 24 25 25 25 26 26 25 26 26 26 26 27 27 27 27 28 29
22 21 22 22 22 22 22 23 23 23 24 25 24 25 25 26 26 26 26 25 26 26 26 26 26 26 26 26 27 27 27 26 26 27 27 27 27 27 27 28 28 28 30
22 22 22 22 22 22 23 24 24 24 25 25 26 26 27 26 26 27 26 26 27 27 26 27 27 28 27 28 27 27 27 27 27 27 27 27 27 27 27 27 28 29 30
22 22 21 22 22 23 23 24 25 26 26 27 28 27 28 27 28 29 27 27 27 27 27 27 28 28 28 28 28 28 28 28 28 28 28 28 28 27 27 27 28 29 30
22 21 21 22 22 23 23 24 26 27 27 28 28 27 28 28 29 29 28 27 28 27 27 28 29 30 30 30 30 30 30 29 29 29 28 28 28 28 28 29 29 30 30
20 20 21 22 23 24 25 25 27 27 28 29 28 28 29 29 29 29 28 28 28 28 27 28 30 30 31 31 30 30 30 30 29 29 29 28 28 28 29 29 30 31 31
21 22 22 23 24 25 26 27 28 28 29 29 30 29 30 30 30 29 29 28 28 28 28 29 30 31 31 30 30 29 29 29 29 29 28 28 27 28 29 29 30 31 31
22 22 24 24 25 26 27 28 29 29 30 30 30 31 31 31 30 30 29 29 28 29 30 30 31 31 30 30 30 30 29 28 27 26 27 27 28 28 28 29 30 30 31
23 23 24 26 26 27 28 29 30 31 31 30 30 31 31 30 30 30 30 29 30 30 30 31 31 30 29 28 29 28 28 28 27 26 27 28 29 28 29 29 29 29 30
23 23 25 26 27 28 29 30 31 31 31 30 30 30 30 30 29 30 30 30 31 30 29 30 30 29 29 28 28 27 28 27 27 27 27 28 28 28 28 28 28 28 29
23 24 25 26 27 28 29 29 30 30 30 29 28 29 28 28 29 30 31 30 30 29 30 30 29 29 28 28 28 28 27 26 27 27 27 28 28 28 28 27 28 29 28
Wind_Direction
276 279 286 292 293 295 298 294 290 295 301 300 298 298 300 302 303 303 300 299 299 299 298 297 296 297 297 297 296 291 287 283 279 277 275 275 275 273 270 268 267 266 264
277 281 287 291 291 291 294 295 294 296 298 299 295 295 298 301 302 303 302 301 301 299 298 297 296 295 295 294 293 291 286 281 279 276 275 275 273 270 269 268 266 264 263
277 283 288 291 290 289 290 292 294 294 294 296 296 295 297 300 300 301 302 301 300 300 298 298 298 296 294 293 291 289 287 282 277 275 274 274 272 269 267 266 264 262 262
278 283 286 288 290 288 289 290 292 292 293 292 294 294 295 298 300 300 300 301 299 299 298 298 298 296 295 294 292 290 288 285 280 276 274 273 272 270 266 265 263 261 258
277 281 283 287 288 289 289 288 290 291 293 293 293 293 295 297 298 298 299 300 299 299 300 299 299 297 296 296 293 290 288 285 282 278 275 273 271 270 268 265 262 259 257
276 280 285 287 287 288 288 289 292 293 293 295 294 295 296 296 297 297 298 299 298 298 299 299 301 299 297 296 294 290 287 284 282 279 276 273 272 270 270 267 266 260 258
279 282 284 286 286 288 288 288 292 293 294 295 295 295 297 297 297 299 299 299 298 298 298 298 299 299 297 296 294 291 289 286 284 281 279 275 273 273 270 268 266 260 258
283 282 283 284 285 288 288 288 289 292 294 295 295 296 298 298 299 301 300 298 297 297 297 297 297 297 297 296 293 289 288 287 285 283 279 277 275 274 272 268 266 262 260
286 288 286 285 286 288 288 289 290 291 293 294 295 297 299 299 300 301 300 299 297 298 298 297 296 296 296 295 292 289 286 285 283 282 281 278 275 273 271 268 265 264 263
284 286 287 289 289 290 291 290 290 292 294 295 297 299 299 299 299 299 300 299 298 298 299 298 297 298 297 295 294 292 289 286 284 283 281 279 275 273 272 270 266 263 263
283 285 287 290 291 290 291 291 291 293 296 297 297 299 299 299 299 299 300 300 299 298 298 298 299 298 296 294 294 292 290 287 286 284 280 278 275 273 272 270 268 266 264
281 281 284 288 292 292 291 292 294 293 295 297 297 298 301 302 301 300 301 300 299 298 297 296 297 298 295 294 292 291 289 288 287 284 281 278 274 272 272 270 268 266 264
280 282 284 287 292 291 291 292 293 293 296 298 299 301 302 303 302 301 302 301 300 299 298 296 296 297 295 294 293 292 290 289 286 284 283 279 276 273 271 269 267 265 263
278 279 283 286 290 291 291 292 293 294 298 301 302 302 302 303 303 302 302 303 301 301 299 297 296 296 295 293 293 295 294 293 290 287 284 280 277 274 272 269 265 262 261
277 279 283 286 288 291 292 292 294 297 299 302 303 302 302 302 303 301 303 303 303 301 298 297 297 297 295 294 295 296 295 295 293 291 287 282 278 276 272 270 267 263 260
277 279 281 284 286 289 293 294 295 298 300 300 301 302 303 302 301 302 302 303 305 303 299 297 297 297 296 296 297 295 294 293 293 291 288 285 281 277 273 270 268 264 261
276 278 280 280 284 289 291 292 295 296 297 298 298 300 301 302 302 302 302 301 302 303 301 298 298 298 297 297 296 295 294 293 293 291 288 285 282 279 277 273 269 265 262
277 278 279 279 284 288 289 290 292 292 295 297 297 300 301 300 299 302 303 301 301 302 300 298 299 299 298 298 297 295 295 293 292 291 289 286 283 280 277 274 271 267 263
275 277 278 279 282 286 287 288 289 290 292 295 295 297 299 299 299 299 301 301 302 301 301 299 299 299 299 298 297 296 295 293 291 290 289 287 284 281 278 276 273 270 266
276 275 277 279 281 283 285 288 288 289 291 293 293 294 297 298 299 298 300 300 301 302 301 300 300 299 299 298 297 296 295 293 291 290 289 287 284 281 279 278 275 272 268
273 274 276 279 283 284 286 286 289 290 291 292 291 293 295 295 297 298 299 299 300 300 300 300 301 301 299 298 298 297 296 293 290 290 289 287 284 282 280 279 276 273 270
276 276 277 279 283 284 285 285 288 289 290 291 293 294 295 295 295 298 299 298 298 298 299 300 301 302 301 299 299 298 296 294 294 292 289 287 285 283 282 280 277 274 271
274 276 277 281 283 284 285 286 289 290 291 290 291 291 292 295 297 298 298 297 299 299 299 300 301 302 301 299 299 299 298 298 295 292 291 289 288 287 285 283 280 277 271
275 276 278 281 283 285 286 288 290 290 290 289 290 292 294 295 296 296 296 296 299 299 299 301 301 302 302 301 300 300 299 299 295 293 291 290 288 287 285 283 282 279 275
276 279 281 283 284 286 288 290 291 291 290 290 290 292 293 295 296 295 296 297 299 299 300 302 302 302 302 302 300 298 297 297 298 296 294 292 290 288 286 284 282 280 277
281 282 284 284 283 286 288 290 293 292 291 290 291 293 293 296 296 295 297 298 298 299 300 301 303 302 301 300 299 298 297 297 298 297 296 293 291 289 287 284 281 280 277
Height
5893 5893 5893 5893 5893 5892 5892 5891 5890 5890 5889 5888 5887 5886 5886 5885 5884 5883 5882 5881 5880 5879 5878 5877 5876 5875 5875 5874 5873 5873 5872 5872 5871 5871 5871 5871 5871 5870 5870 5870 5871 5871 5871
5892 5892 5892 5892 5891 5891 5890 5890 5889 5888 5887 5887 5886 5885 5884 5883 5882 5881 5880 5879 5878 5877 5876 5875 5874 5874 5873 5872 5872 5871 5870 5870 5869 5869 5869 5869 5868 5868 5868 5869 5869 5869 5869
5891 5891 5891 5890 5890 5889 5889 5888 5887 5886 5886 5885 5884 5883 5882 5881 5880 5880 5878 5877 5876 5875 5874 5873 5873 5872 5871 5870 5870 5869 5868 5867 5867 5867 5867 5866 5866 5866 5866 5866 5866 5867 5867
5889 5889 5889 5888 5888 5887 5887 5886 5885 5885 5884 5883 5882 5881 5880 5879 5878 5877 5876 5875 5874 5873 5872 5871 5870 5869 5869 5868 5867 5866 5866 5865 5865 5864 5864 5864 5864 5863 5863 5863 5864 5864 5864
5888 5888 5887 5887 5886 5885 5884 5884 5883 5883 5882 5881 5880 5879 5878 5877 5876 5875 5874 5873 5871 5870 5870 5868 5867 5867 5866 5865 5864 5864 5863 5862 5862 5862 5861 5862 5861 5860 5860 5861 5861 5861 5862
5886 5886 5885 5884 5884 5883 5882 5881 5881 5880 5879 5879 5877 5877 5876 5874 5873 5872 5871 5870 5869 5868 5867 5866 5865 5864 5863 5862 5861 5861 5860 5859 5859 5858 5858 5858 5858 5858 5857 5858 5858 5858 5858
5884 5884 5883 5882 5881 5881 5880 5879 5878 5878 5877 5876 5875 5874 5873 5872 5871 5870 5868 5867 5866 5865 5864 5863 5862 5861 5860 5859 5858 5858 5857 5856 5856 5855 5855 5855 5855 5855 5854 5854 5854 5854 5855
5881 5881 5880 5879 5879 5878 5877 5877 5876 5875 5874 5873 5872 5871 5870 5869 5868 5867 5866 5864 5863 5862 5861 5860 5859 5858 5857 5856 5855 5854 5853 5853 5852 5852 5852 5851 5851 5851 5850 5850 5850 5851 5851
5878 5877 5877 5876 5876 5875 5874 5874 5873 5872 5871 5870 5869 5868 5867 5866 5865 5864 5863 5861 5860 5859 5858 5856 5855 5854 5853 5852 5851 5850 5849 5848 5848 5848 5848 5847 5847 5847 5846 5846 5847 5847 5848
5874 5875 5874 5874 5873 5873 5872 5871 5870 5869 5868 5867 5867 5866 5864 5863 5862 5861 5859 5858 5857 5855 5854 5853 5851 5850 5849 5848 5847 5846 5845 5844 5844 5844 5843 5843 5842 5842 5842 5842 5842 5843 5843
5871 5871 5871 5871 5870 5870 5869 5868 5867 5866 5865 5864 5864 5862 5861 5860 5859 5857 5856 5854 5853 5851 5850 5849 5847 5846 5845 5844 5843 5842 5841 5840 5839 5839 5838 5838 5837 5837 5836 5837 5837 5838 5839
5868 5868 5868 5867 5867 5866 5866 5865 5864 5863 5862 5861 5860 5859 5858 5856 5855 5854 5852 5850 5849 5847 5846 5844 5843 5842 5840 5839 5838 5837 5836 5835 5834 5833 5832 5832 5831 5831 5831 5831 5832 5833 5834
5865 5864 5864 5864 5863 5863 5862 5861 5860 5859 5859 5858 5857 5855 5854 5852 5851 5850 5848 5846 5844 5843 5841 5839 5838 5837 5835 5834 5833 5832 5830 5829 5828 5827 5827 5826 5825 5825 5825 5826 5826 5827 5828
5861 5861 5860 5860 5860 5859 5859 5857 5856 5855 5855 5853 5852 5851 5850 5848 5846 5845 5843 5842 5840 5838 5836 5835 5833 5832 5830 5829 5828 5826 5825 5823 5822 5821 5820 5819 5819 5819 5819 5819 5820 5821 5822
5857 5857 5857 5856 5856 5855 5855 5854 5852 5851 5851 5849 5848 5847 5845 5844 5842 5840 5838 5837 5835 5833 5831 5830 5828 5826 5825 5823 5822 5821 5819 5818 5816 5815 5814 5813 5813 5812 5812 5813 5813 5814 5815
5854 5854 5853 5853 5852 5851 5851 5850 5849 5848 5847 5845 5844 5843 5841 5840 5838 5836 5834 5832 5830 5828 5826 5824 5823 5821 5820 5818 5817 5815 5814 5812 5810 5809 5808 5807 5806 5805 5805 5806 5806 5807 5807
5850 5850 5849 5849 5848 5848 5847 5846 5845 5844 5842 5841 5840 5839 5837 5835 5833 5831 5829 5827 5825 5823 5821 5819 5817 5816 5814 5812 5811 5809 5807 5806 5804 5802 5801 5800 5799 5798 5798 5798 5798 5799 5800
5846 5845 5845 5844 5844 5844 5843 5842 5841 5839 5838 5836 5835 5834 5832 5830 5829 5827 5825 5822 5820 5818 5816 5814 5812 5810 5808 5806 5805 5803 5801 5799 5797 5796 5794 5793 5792 5791 5791 5791 5791 5791 5792
5841 5841 5840 5840 5840 5839 5838 5837 5836 5835 5833 5832 5831 5829 5827 5825 5824 5822 5820 5817 5815 5813 5811 5808 5806 5804 5802 5800 5798 5796 5795 5792 5790 5789 5787 5785 5784 5783 5783 5783 5783 5783 5784
5836 5836 5836 5836 5835 5834 5833 5832 5831 5830 5829 5827 5826 5824 5822 5820 5818 5816 5814 5812 5810 5807 5805 5803 5800 5798 5796 5794 5792 5790 5787 5785 5783 5781 5779 5778 5777 5775 5775 5775 5775 5775 5776
5831 5831 5831 5831 5830 5829 5828 5827 5826 5824 5823 5822 5820 5819 5817 5815 5812 5810 5808 5806 5804 5802 5799 5797 5795 5792 5790 5787 5785 5783 5780 5777 5775 5773 5771 5770 5769 5768 5767 5766 5766 5766 5767
5827 5827 5826 5826 5825 5824 5823 5822 5821 5819 5817 5816 5814 5813 5811 5809 5806 5804 5802 5800 5798 5796 5794 5791 5789 5786 5783 5781 5778 5776 5773 5771 5768 5766 5764 5763 5762 5760 5759 5758 5757 5757 5757
5823 5822 5822 5821 5820 5819 5818 5817 5815 5813 5811 5809 5808 5807 5805 5803 5801 5798 5796 5794 5792 5790 5788 5785 5782 5779 5776 5774 5771 5768 5766 5764 5761 5759 5757 5755 5754 5753 5751 5750 5749 5748 5748
5817 5817 5817 5816 5814 5813 5812 5811 5809 5807 5805 5804 5802 5801 5799 5797 5795 5793 5791 5788 5786 5784 5781 5779 5776 5772 5769 5767 5764 5761 5759 5756 5754 5752 5751 5748 5747 5745 5743 5742 5741 5740 5739
5811 5810 5811 5810 5808 5807 5806 5804 5803 5801 5799 5797 5796 5794 5792 5790 5788 5786 5784 5782 5779 5777 5775 5772 5769 5766 5763 5760 5758 5755 5752 5750 5747 5745 5744 5742 5739 5737 5735 5734 5733 5732 5731
5806 5805 5805 5803 5802 5801 5800 5798 5796 5794 5792 5790 5789 5787 5786 5783 5781 5780 5778 5776 5773 5771 5768 5765 5762 5759 5756 5754 5751 5749 5746 5744 5741 5738 5736 5734 5732 5730 5727 5726 5725 5724 5723